Westminster, MD

2:01 AM EDT on April 29, 2017 (GMT -0400)
Carroll County Regional-Poage

Weather History for KDMW - October, 2013

Change the Weather History Date:

Saturday, October 5, 2013

  Actual Average (KTHV) Record (KTHV)
Temperature  
Mean Temperature 76 °F -  
Max Temperature 87 °F 0 °F 87 °F (2013)
Min Temperature 66 °F - 35 °F (1999)
Cooling Degree Days 12    
Growing Degree Days 26 (Base 50)    
Moisture  
Dew Point 64 °F    
Average Humidity 68    
Maximum Humidity 88    
Minimum Humidity 48    
Precipitation  
Precipitation 0.00 in - - ()
Sea Level Pressure  
Sea Level Pressure 30.08 in    
Wind  
Wind Speed 2 mph (SW)    
Max Wind Speed 10 mph    
Max Gust Speed -    
Visibility 10 miles    
Events      
Averages and records for this station are not official NWS values.
T = Trace of Precipitation, MM = Missing Value Source: NWS Daily Summary

Daily Weather History Graph

Daily Weather History Graph

Search for Another Location

Airport or City:

Trip Planner

Search our weather history database for the weather conditions in past years. The results will help you decide how hot, cold, wet, or windy it might be!

Date:

Astronomy

Oct. 05, 2013 Rise Set
Actual Time 7:08 AM EDT 6:43 PM EDT
Civil Twilight 6:41 AM EDT 7:10 PM EDT
Nautical Twilight 6:10 AM EDT 7:41 PM EDT
Astronomical Twilight 5:38 AM EDT 8:13 PM EDT
Moon 7:45 AM EDT (10/5) 7:01 PM EDT (10/5)
Length of Visible Light 12h 29m
Length of Day
11h 35m
New Moon, 0% of the Moon is Illuminated
Oct 5
New Moon
Oct 11
First Quarter
Oct 18
Full
Oct 26
Last Quarter
Nov 3
New

Hourly Weather History & Observations

Time (EDT) Temp. Heat Index Dew Point Humidity Pressure Visibility Wind Dir Wind Speed Gust Speed Precip Events Conditions
12:15 AM 71.6 °F - 62.6 °F 73% 30.08 in 10.0 mi Calm Calm - N/A   Clear
12:35 AM 69.8 °F - 62.6 °F 78% 30.08 in 10.0 mi Calm Calm - N/A   Scattered Clouds
12:55 AM 69.8 °F - 62.6 °F 78% 30.08 in 10.0 mi Calm Calm - N/A   Scattered Clouds
1:15 AM 69.8 °F - 62.6 °F 78% 30.08 in 10.0 mi Calm Calm - N/A   Clear
1:35 AM 69.8 °F - 62.6 °F 78% 30.08 in 10.0 mi Calm Calm - N/A   Scattered Clouds
1:55 AM 68.0 °F - 62.6 °F 83% 30.09 in 10.0 mi Calm Calm - N/A   Clear
2:15 AM 66.2 °F - 62.6 °F 88% 30.09 in 10.0 mi Calm Calm - N/A   Clear
2:35 AM 68.0 °F - 62.6 °F 83% 30.08 in 10.0 mi Calm Calm - N/A   Clear
2:55 AM 66.2 °F - 62.6 °F 88% 30.08 in 10.0 mi Calm Calm - N/A   Clear
3:15 AM 66.2 °F - 60.8 °F 83% 30.08 in 10.0 mi Calm Calm - N/A   Clear
3:35 AM 68.0 °F - 62.6 °F 83% 30.08 in 10.0 mi Calm Calm - N/A   Scattered Clouds
3:55 AM 69.8 °F - 62.6 °F 78% 30.08 in 10.0 mi Calm Calm - N/A   Mostly Cloudy
4:15 AM 68.0 °F - 62.6 °F 83% 30.09 in 10.0 mi Calm Calm - N/A   Mostly Cloudy
4:35 AM 69.8 °F - 62.6 °F 78% 30.09 in 10.0 mi WNW 4.6 mph - N/A   Clear
4:55 AM 71.6 °F - 62.6 °F 73% 30.09 in 10.0 mi NW 3.5 mph - N/A   Mostly Cloudy
5:15 AM 69.8 °F - 62.6 °F 78% 30.10 in 10.0 mi Calm Calm - N/A   Scattered Clouds
5:35 AM 69.8 °F - 64.4 °F 83% 30.10 in 10.0 mi North 3.5 mph - N/A   Mostly Cloudy
5:55 AM 69.8 °F - 64.4 °F 83% 30.10 in 10.0 mi NNW 3.5 mph - N/A   Mostly Cloudy
6:15 AM 69.8 °F - 64.4 °F 83% 30.10 in 10.0 mi Calm Calm - N/A   Scattered Clouds
6:35 AM 69.8 °F - 64.4 °F 83% 30.10 in 10.0 mi Calm Calm - N/A   Scattered Clouds
6:55 AM 69.8 °F - 64.4 °F 83% 30.10 in 10.0 mi NW 3.5 mph - N/A   Overcast
7:15 AM 69.8 °F - 64.4 °F 83% 30.10 in 10.0 mi Calm Calm - N/A   Mostly Cloudy
7:35 AM 69.8 °F - 64.4 °F 83% 30.11 in 10.0 mi Calm Calm - N/A   Mostly Cloudy
7:55 AM 69.8 °F - 64.4 °F 83% 30.12 in 10.0 mi NW 3.5 mph - N/A   Scattered Clouds
8:15 AM 71.6 °F - 64.4 °F 78% 30.12 in 10.0 mi Calm Calm - N/A   Clear
8:35 AM 71.6 °F - 64.4 °F 78% 30.12 in 10.0 mi Calm Calm - N/A   Clear
8:55 AM 71.6 °F - 66.2 °F 83% 30.12 in 10.0 mi Calm Calm - N/A   Clear
9:15 AM 75.2 °F - 66.2 °F 73% 30.12 in 10.0 mi WNW 3.5 mph - N/A   Clear
9:35 AM 75.2 °F - 66.2 °F 73% 30.12 in 10.0 mi WNW 5.8 mph - N/A   Clear
9:55 AM 75.2 °F - 66.2 °F 73% 30.12 in 10.0 mi WNW 3.5 mph - N/A   Clear
10:15 AM 77.0 °F - 64.4 °F 65% 30.12 in 10.0 mi North 3.5 mph - N/A   Clear
10:35 AM 77.0 °F - 64.4 °F 65% 30.12 in 10.0 mi West 4.6 mph - N/A   Clear
10:55 AM 78.8 °F - 64.4 °F 61% 30.12 in 10.0 mi Calm Calm - N/A   Clear
11:15 AM 78.8 °F - 64.4 °F 61% 30.12 in 10.0 mi Calm Calm - N/A   Clear
11:35 AM 78.8 °F - 64.4 °F 61% 30.12 in 10.0 mi Calm Calm - N/A   Clear
11:55 AM 78.8 °F - 64.4 °F 61% 30.11 in 10.0 mi WSW 4.6 mph - N/A   Clear
12:15 PM 80.6 °F 82.3 °F 64.4 °F 58% 30.11 in 10.0 mi Calm Calm - N/A   Clear
12:35 PM 80.6 °F 82.3 °F 64.4 °F 58% 30.10 in 10.0 mi Calm Calm - N/A   Clear
12:55 PM 82.4 °F 83.9 °F 64.4 °F 54% 30.09 in 10.0 mi Calm Calm - N/A   Clear
1:20 PM 82.4 °F 83.9 °F 64.4 °F 54% 30.08 in 10.0 mi Calm Calm - N/A   Clear
1:40 PM 84.2 °F 85.0 °F 62.6 °F 48% 30.07 in 10.0 mi SSW 5.8 mph - N/A   Mostly Cloudy
2:00 PM 84.2 °F 85.0 °F 62.6 °F 48% 30.06 in 10.0 mi SSW 4.6 mph - N/A   Scattered Clouds
2:20 PM 84.2 °F 85.0 °F 62.6 °F 48% 30.06 in 10.0 mi WSW 4.6 mph - N/A   Scattered Clouds
2:40 PM 86.0 °F 87.3 °F 64.4 °F 48% 30.06 in 10.0 mi WSW 5.8 mph - N/A   Scattered Clouds
3:00 PM 84.2 °F 86.6 °F 66.2 °F 55% 30.05 in 10.0 mi WSW 4.6 mph - N/A   Clear
3:20 PM 84.2 °F 86.6 °F 66.2 °F 55% 30.05 in 10.0 mi South 8.1 mph - N/A   Scattered Clouds
3:40 PM 86.0 °F 87.3 °F 64.4 °F 48% 30.05 in 10.0 mi WSW 5.8 mph - N/A   Scattered Clouds
4:00 PM 87.8 °F 90.4 °F 66.2 °F 49% 30.04 in 10.0 mi South 6.9 mph - N/A   Clear
4:20 PM 86.0 °F 87.3 °F 64.4 °F 48% 30.04 in 10.0 mi SW 10.4 mph - N/A   Clear
4:40 PM 86.0 °F 87.3 °F 64.4 °F 48% 30.04 in 10.0 mi West 8.1 mph - N/A   Clear
5:00 PM 86.0 °F 88.2 °F 66.2 °F 51% 30.04 in 10.0 mi SW 6.9 mph - N/A   Scattered Clouds
5:20 PM 86.0 °F 88.2 °F 66.2 °F 51% 30.04 in 10.0 mi SSW 8.1 mph - N/A   Scattered Clouds
5:40 PM 84.2 °F 85.0 °F 62.6 °F 48% 30.04 in 10.0 mi South 5.8 mph - N/A   Clear
6:00 PM 84.2 °F 85.6 °F 64.4 °F 51% 30.04 in 10.0 mi South 4.6 mph - N/A   Clear
6:20 PM 82.4 °F 83.9 °F 64.4 °F 54% 30.05 in 10.0 mi South 3.5 mph - N/A   Clear
6:40 PM 80.6 °F 82.3 °F 64.4 °F 58% 30.04 in 10.0 mi South 3.5 mph - N/A   Clear
7:00 PM 80.6 °F 82.3 °F 64.4 °F 58% 30.04 in 10.0 mi South 4.6 mph - N/A   Scattered Clouds
7:20 PM 78.8 °F - 64.4 °F 61% 30.04 in 10.0 mi South 3.5 mph - N/A   Clear
7:35 PM 78.8 °F - 64.4 °F 61% 30.04 in 10.0 mi South 4.6 mph - N/A   Clear
8:00 PM 78.8 °F - 64.4 °F 61% 30.04 in 10.0 mi Calm Calm - N/A   Clear
8:20 PM 77.0 °F - 64.4 °F 65% 30.05 in 10.0 mi Calm Calm - N/A   Clear
8:40 PM 77.0 °F - 66.2 °F 69% 30.05 in 10.0 mi South 5.8 mph - N/A   Clear
9:00 PM 77.0 °F - 64.4 °F 65% 30.05 in 10.0 mi South 3.5 mph - N/A   Clear
9:20 PM 77.0 °F - 64.4 °F 65% 30.06 in 10.0 mi SE 4.6 mph - N/A   Clear
9:40 PM 75.2 °F - 66.2 °F 73% 30.07 in 10.0 mi Calm Calm - N/A   Clear
10:00 PM 75.2 °F - 66.2 °F 73% 30.07 in 10.0 mi Calm Calm - N/A   Clear
10:20 PM 73.4 °F - 66.2 °F 78% 30.07 in 10.0 mi Calm Calm - N/A   Clear
10:40 PM 73.4 °F - 68.0 °F 83% 30.07 in 10.0 mi South 4.6 mph - N/A   Clear
11:00 PM 73.4 °F - 66.2 °F 78% 30.07 in 10.0 mi Calm Calm - N/A   Clear
11:20 PM 73.4 °F - 66.2 °F 78% 30.07 in 10.0 mi SSE 3.5 mph - N/A   Clear
11:40 PM 73.4 °F - 66.2 °F 78% 30.06 in 10.0 mi SSE 3.5 mph - N/A   Clear